Time,TemperatureF,DewpointF,PressureIn,WindDirection,WindDirectionDegrees,WindSpeedMPH,WindSpeedGustMPH,Humidity,HourlyPrecipIn,Conditions,Clouds,dailyrainin,SoftwareType,DateUTC
2013-05-08 00:02:00,61.2,52.5,30.23,SSW,202,0.0,2.0,73,0.00,,,0.00,meteohub,2013-05-08 04:02:00,
2013-05-08 00:07:00,61.0,52.3,30.23,South,180,0.0,2.0,73,0.00,,,0.00,meteohub,2013-05-08 04:07:00,
2013-05-08 00:12:00,60.6,52.7,30.23,SSW,202,0.0,2.0,75,0.00,,,0.00,meteohub,2013-05-08 04:12:00,
2013-05-08 00:17:00,60.4,52.9,30.23,SSE,158,0.0,3.0,76,0.00,,,0.00,meteohub,2013-05-08 04:17:00,
2013-05-08 00:22:00,60.3,52.7,30.23,SSW,202,0.0,3.0,76,0.00,,,0.00,meteohub,2013-05-08 04:22:00,
2013-05-08 00:27:00,60.3,52.7,30.23,WSW,248,0.0,2.0,76,0.00,,,0.00,meteohub,2013-05-08 04:27:00,
2013-05-08 00:32:00,60.1,52.9,30.26,SW,225,0.0,2.0,77,0.00,,,0.00,meteohub,2013-05-08 04:32:00,
2013-05-08 00:37:00,59.9,52.3,30.26,SSW,202,0.0,2.0,76,0.00,,,0.00,meteohub,2013-05-08 04:37:00,
2013-05-08 00:42:00,59.7,52.2,30.26,SSW,202,0.0,1.0,76,0.00,,,0.00,meteohub,2013-05-08 04:42:00,
2013-05-08 00:47:00,59.4,52.2,30.23,SSW,202,0.0,1.0,77,0.00,,,0.00,meteohub,2013-05-08 04:47:00,
2013-05-08 00:52:00,59.0,51.8,30.23,SSW,202,0.0,0.0,77,0.00,,,0.00,meteohub,2013-05-08 04:52:00,
2013-05-08 00:57:00,58.8,51.6,30.23,SSW,202,0.0,0.0,77,0.00,,,0.00,meteohub,2013-05-08 04:57:00,
2013-05-08 01:02:00,58.5,51.6,30.23,SSW,202,0.0,0.0,78,0.00,,,0.00,meteohub,2013-05-08 05:02:00,
2013-05-08 01:07:00,58.3,51.4,30.23,SSW,202,0.0,0.0,78,0.00,,,0.00,meteohub,2013-05-08 05:07:00,
2013-05-08 01:12:00,58.1,51.6,30.23,SSW,202,0.0,0.0,79,0.00,,,0.00,meteohub,2013-05-08 05:12:00,
2013-05-08 01:17:00,57.9,51.4,30.23,SSW,202,0.0,0.0,79,0.00,,,0.00,meteohub,2013-05-08 05:17:00,
2013-05-08 01:22:00,57.7,51.3,30.23,SSW,202,0.0,0.0,79,0.00,,,0.00,meteohub,2013-05-08 05:22:00,
2013-05-08 01:27:00,57.4,51.6,30.23,SSW,202,0.0,0.0,81,0.00,,,0.00,meteohub,2013-05-08 05:27:00,
2013-05-08 01:32:00,57.2,51.4,30.23,SSW,202,0.0,0.0,81,0.00,,,0.00,meteohub,2013-05-08 05:32:00,
2013-05-08 01:37:00,57.0,51.6,30.23,SSW,202,0.0,0.0,82,0.00,,,0.00,meteohub,2013-05-08 05:37:00,
2013-05-08 01:42:00,57.0,51.6,30.23,SE,135,0.0,0.0,82,0.00,,,0.00,meteohub,2013-05-08 05:42:00,
2013-05-08 01:47:00,57.0,51.6,30.23,SE,135,0.0,0.0,82,0.00,,,0.00,meteohub,2013-05-08 05:47:00,
2013-05-08 01:52:00,56.8,51.4,30.23,SE,135,0.0,0.0,82,0.00,,,0.00,meteohub,2013-05-08 05:52:00,
2013-05-08 01:57:00,56.7,51.3,30.23,SE,135,0.0,0.0,82,0.00,,,0.00,meteohub,2013-05-08 05:57:00,
2013-05-08 02:02:00,56.5,51.4,30.23,SE,135,0.0,0.0,83,0.00,,,0.00,meteohub,2013-05-08 06:02:00,
2013-05-08 02:07:00,56.3,51.3,30.23,SE,135,0.0,0.0,83,0.00,,,0.00,meteohub,2013-05-08 06:07:00,
2013-05-08 02:12:00,56.1,51.4,30.23,SE,135,0.0,0.0,84,0.00,,,0.00,meteohub,2013-05-08 06:12:00,
2013-05-08 02:17:00,56.1,51.4,30.20,SE,135,0.0,0.0,84,0.00,,,0.00,meteohub,2013-05-08 06:17:00,
2013-05-08 02:22:00,55.9,51.3,30.20,SE,135,0.0,0.0,84,0.00,,,0.00,meteohub,2013-05-08 06:22:00,
2013-05-08 02:27:00,55.8,51.1,30.20,SE,135,0.0,0.0,84,0.00,,,0.00,meteohub,2013-05-08 06:27:00,
2013-05-08 02:32:00,55.6,51.1,30.20,SE,135,0.0,0.0,85,0.00,,,0.00,meteohub,2013-05-08 06:32:00,
2013-05-08 02:37:00,55.6,50.9,30.20,SE,135,0.0,0.0,84,0.00,,,0.00,meteohub,2013-05-08 06:37:00,
2013-05-08 02:42:00,55.4,50.7,30.20,SE,135,0.0,0.0,84,0.00,,,0.00,meteohub,2013-05-08 06:42:00,
2013-05-08 02:47:00,55.2,51.1,30.23,SE,135,0.0,0.0,86,0.00,,,0.00,meteohub,2013-05-08 06:47:00,
2013-05-08 02:52:00,55.0,50.9,30.23,SE,135,0.0,0.0,86,0.00,,,0.00,meteohub,2013-05-08 06:52:00,
2013-05-08 02:57:00,55.0,50.5,30.23,SE,135,0.0,0.0,85,0.00,,,0.00,meteohub,2013-05-08 06:57:00,
2013-05-08 03:02:00,55.0,50.9,30.23,SE,135,0.0,0.0,86,0.00,,,0.00,meteohub,2013-05-08 07:02:00,
2013-05-08 03:07:00,54.9,51.1,30.23,SE,135,0.0,0.0,87,0.00,,,0.00,meteohub,2013-05-08 07:07:00,
2013-05-08 03:12:00,54.9,51.1,30.23,SE,135,0.0,0.0,87,0.00,,,0.00,meteohub,2013-05-08 07:12:00,
2013-05-08 03:17:00,54.9,51.1,30.23,SE,135,0.0,0.0,87,0.00,,,0.00,meteohub,2013-05-08 07:17:00,
2013-05-08 03:22:00,54.9,51.1,30.23,SE,135,0.0,0.0,87,0.00,,,0.00,meteohub,2013-05-08 07:22:00,
2013-05-08 03:27:00,54.7,50.9,30.23,SE,135,0.0,0.0,87,0.00,,,0.00,meteohub,2013-05-08 07:27:00,
2013-05-08 03:32:00,54.5,50.0,30.23,East,90,0.0,0.0,85,0.00,,,0.00,meteohub,2013-05-08 07:32:00,
2013-05-08 03:37:00,54.3,50.2,30.23,East,90,0.0,0.0,86,0.00,,,0.00,meteohub,2013-05-08 07:37:00,
2013-05-08 03:42:00,54.1,50.7,30.23,ESE,112,0.0,0.0,88,0.00,,,0.00,meteohub,2013-05-08 07:42:00,
2013-05-08 03:47:00,54.1,50.4,30.23,ESE,112,0.0,0.0,87,0.00,,,0.00,meteohub,2013-05-08 07:47:00,
2013-05-08 03:52:00,54.3,50.9,30.23,ESE,112,0.0,0.0,88,0.00,,,0.00,meteohub,2013-05-08 07:52:00,
2013-05-08 03:57:00,54.3,50.9,30.23,ESE,112,0.0,0.0,88,0.00,,,0.00,meteohub,2013-05-08 07:57:00,
2013-05-08 04:02:00,54.3,51.1,30.23,ESE,112,0.0,0.0,89,0.00,,,0.00,meteohub,2013-05-08 08:02:00,
2013-05-08 04:07:00,54.1,50.7,30.23,ESE,112,0.0,0.0,88,0.00,,,0.00,meteohub,2013-05-08 08:07:00,
2013-05-08 04:12:00,54.0,50.5,30.23,ESE,112,0.0,0.0,88,0.00,,,0.00,meteohub,2013-05-08 08:12:00,
2013-05-08 04:17:00,53.8,50.4,30.23,ESE,112,0.0,0.0,88,0.00,,,0.00,meteohub,2013-05-08 08:17:00,
2013-05-08 04:22:00,53.6,50.2,30.23,ESE,112,0.0,0.0,88,0.00,,,0.00,meteohub,2013-05-08 08:22:00,
2013-05-08 04:27:00,53.4,50.2,30.23,ESE,112,0.0,0.0,89,0.00,,,0.00,meteohub,2013-05-08 08:27:00,
2013-05-08 04:32:00,53.4,50.2,30.20,ESE,112,0.0,0.0,89,0.00,,,0.00,meteohub,2013-05-08 08:32:00,
2013-05-08 04:37:00,53.2,49.8,30.20,ENE,68,0.0,0.0,88,0.00,,,0.00,meteohub,2013-05-08 08:37:00,
2013-05-08 04:42:00,53.1,49.8,30.20,ESE,112,0.0,0.0,89,0.00,,,0.00,meteohub,2013-05-08 08:42:00,
2013-05-08 04:47:00,52.9,50.0,30.23,ESE,112,0.0,0.0,90,0.00,,,0.00,meteohub,2013-05-08 08:47:00,
2013-05-08 04:52:00,52.9,49.8,30.23,SE,135,0.0,0.0,89,0.00,,,0.00,meteohub,2013-05-08 08:52:00,
2013-05-08 04:57:00,52.9,50.0,30.23,SE,135,0.0,0.0,90,0.00,,,0.00,meteohub,2013-05-08 08:57:00,
2013-05-08 05:02:00,52.9,50.4,30.20,SE,135,0.0,0.0,91,0.00,,,0.00,meteohub,2013-05-08 09:02:00,
2013-05-08 05:07:00,52.7,50.2,30.20,NE,45,0.0,0.0,91,0.00,,,0.00,meteohub,2013-05-08 09:07:00,
2013-05-08 05:12:00,52.7,50.4,30.20,ESE,112,0.0,0.0,92,0.00,,,0.00,meteohub,2013-05-08 09:12:00,
2013-05-08 05:17:00,52.7,50.4,30.23,ENE,68,0.0,0.0,92,0.00,,,0.00,meteohub,2013-05-08 09:17:00,
2013-05-08 05:22:00,52.9,50.5,30.23,ENE,68,0.0,0.0,92,0.00,,,0.00,meteohub,2013-05-08 09:22:00,
2013-05-08 05:27:00,53.1,50.7,30.23,South,180,0.0,0.0,92,0.00,,,0.00,meteohub,2013-05-08 09:27:00,
2013-05-08 05:32:00,53.2,50.9,30.23,SSW,202,0.0,0.0,92,0.00,,,0.00,meteohub,2013-05-08 09:32:00,
2013-05-08 05:37:00,53.2,50.9,30.23,SSW,202,0.0,0.0,92,0.00,,,0.00,meteohub,2013-05-08 09:37:00,
2013-05-08 05:42:00,53.2,50.7,30.23,SSW,202,0.0,0.0,91,0.00,,,0.00,meteohub,2013-05-08 09:42:00,
2013-05-08 05:47:00,53.1,50.7,30.26,North,0,0.0,0.0,92,0.00,,,0.00,meteohub,2013-05-08 09:47:00,
2013-05-08 05:52:00,53.2,51.3,30.26,North,0,0.0,0.0,93,0.00,,,0.00,meteohub,2013-05-08 09:52:00,
2013-05-08 05:57:00,53.2,51.3,30.26,SSE,158,0.0,0.0,93,0.00,,,0.00,meteohub,2013-05-08 09:57:00,
2013-05-08 06:02:00,53.6,52.0,30.23,SSE,158,0.0,0.0,94,0.00,,,0.00,meteohub,2013-05-08 10:02:00,
2013-05-08 06:07:00,53.6,51.6,30.23,SSE,158,0.0,0.0,93,0.00,,,0.00,meteohub,2013-05-08 10:07:00,
2013-05-08 06:12:00,53.6,51.6,30.23,NE,45,0.0,0.0,93,0.00,,,0.00,meteohub,2013-05-08 10:12:00,
2013-05-08 06:17:00,53.8,52.2,30.23,NE,45,0.0,0.0,94,0.00,,,0.00,meteohub,2013-05-08 10:17:00,
2013-05-08 06:22:00,54.0,52.3,30.23,NNE,22,0.0,0.0,94,0.00,,,0.00,meteohub,2013-05-08 10:22:00,
2013-05-08 06:27:00,54.3,52.9,30.23,SE,135,0.0,0.0,95,0.00,,,0.00,meteohub,2013-05-08 10:27:00,
2013-05-08 06:32:00,54.5,53.1,30.23,East,90,0.0,0.0,95,0.00,,,0.00,meteohub,2013-05-08 10:32:00,
2013-05-08 06:37:00,54.7,53.6,30.23,South,180,0.0,0.0,96,0.00,,,0.00,meteohub,2013-05-08 10:37:00,
2013-05-08 06:42:00,54.9,53.4,30.23,South,180,0.0,0.0,95,0.00,,,0.00,meteohub,2013-05-08 10:42:00,
2013-05-08 06:47:00,55.4,54.0,30.23,South,180,0.0,0.0,95,0.00,,,0.00,meteohub,2013-05-08 10:47:00,
2013-05-08 06:52:00,55.6,54.5,30.23,South,180,0.0,0.0,96,0.00,,,0.00,meteohub,2013-05-08 10:52:00,
2013-05-08 06:57:00,55.8,54.3,30.23,SSW,202,0.0,0.0,95,0.00,,,0.00,meteohub,2013-05-08 10:57:00,
2013-05-08 07:02:00,55.9,54.5,30.23,SSW,202,0.0,0.0,95,0.00,,,0.00,meteohub,2013-05-08 11:02:00,
2013-05-08 07:07:00,55.9,54.5,30.23,SSW,202,0.0,0.0,95,0.00,,,0.00,meteohub,2013-05-08 11:07:00,
2013-05-08 07:12:00,56.1,55.0,30.23,NNW,338,0.0,0.0,96,0.00,,,0.00,meteohub,2013-05-08 11:12:00,
2013-05-08 07:17:00,56.3,55.2,30.23,WNW,292,0.0,0.0,96,0.00,,,0.00,meteohub,2013-05-08 11:17:00,
2013-05-08 07:22:00,56.5,55.4,30.23,NNW,338,0.0,0.0,96,0.00,,,0.00,meteohub,2013-05-08 11:22:00,
2013-05-08 07:27:00,56.7,55.8,30.23,WNW,292,0.0,0.0,97,0.00,,,0.00,meteohub,2013-05-08 11:27:00,
2013-05-08 07:32:00,56.8,55.9,30.26,North,0,0.0,0.0,97,0.00,,,0.00,meteohub,2013-05-08 11:32:00,
2013-05-08 07:37:00,56.8,55.9,30.26,NW,315,0.0,0.0,97,0.00,,,0.00,meteohub,2013-05-08 11:37:00,
2013-05-08 07:42:00,57.0,56.1,30.26,NW,315,0.0,0.0,97,0.00,,,0.00,meteohub,2013-05-08 11:42:00,
2013-05-08 07:47:00,57.4,56.5,30.26,NW,315,0.0,0.0,97,0.00,,,0.00,meteohub,2013-05-08 11:47:00,
2013-05-08 07:52:00,57.6,56.7,30.26,WNW,292,0.0,0.0,97,0.00,,,0.00,meteohub,2013-05-08 11:52:00,
2013-05-08 07:57:00,57.9,57.0,30.26,WNW,292,0.0,0.0,97,0.00,,,0.00,meteohub,2013-05-08 11:57:00,
2013-05-08 08:02:00,57.9,57.0,30.26,NW,315,0.0,0.0,97,0.00,,,0.00,meteohub,2013-05-08 12:02:00,
2013-05-08 08:07:00,58.1,57.2,30.26,NW,315,0.0,0.0,97,0.00,,,0.00,meteohub,2013-05-08 12:07:00,
2013-05-08 08:12:00,58.3,57.4,30.26,WNW,292,0.0,0.0,97,0.00,,,0.00,meteohub,2013-05-08 12:12:00,
2013-05-08 08:17:00,58.5,57.6,30.26,North,0,0.0,0.0,97,0.00,,,0.00,meteohub,2013-05-08 12:17:00,
2013-05-08 08:22:00,58.5,57.6,30.26,North,0,0.0,0.0,97,0.00,,,0.00,meteohub,2013-05-08 12:22:00,
2013-05-08 08:27:00,58.8,57.9,30.26,North,0,0.0,0.0,97,0.00,,,0.00,meteohub,2013-05-08 12:27:00,
2013-05-08 08:32:00,58.8,57.9,30.26,North,0,0.0,0.0,97,0.00,,,0.00,meteohub,2013-05-08 12:32:00,
2013-05-08 08:37:00,59.0,57.9,30.26,North,0,0.0,2.0,96,0.00,,,0.00,meteohub,2013-05-08 12:37:00,
2013-05-08 08:42:00,59.2,58.3,30.26,NNW,338,0.0,2.0,97,0.00,,,0.00,meteohub,2013-05-08 12:42:00,
2013-05-08 08:47:00,59.5,58.6,30.26,NW,315,0.0,1.0,97,0.00,,,0.00,meteohub,2013-05-08 12:47:00,
2013-05-08 08:52:00,59.7,58.8,30.26,NNW,338,0.0,1.0,97,0.00,,,0.00,meteohub,2013-05-08 12:52:00,
2013-05-08 08:57:00,60.1,59.0,30.26,NNW,338,0.0,1.0,96,0.00,,,0.00,meteohub,2013-05-08 12:57:00,
2013-05-08 09:02:00,60.4,59.4,30.26,NW,315,0.0,0.0,96,0.00,,,0.00,meteohub,2013-05-08 13:02:00,
2013-05-08 09:07:00,60.6,59.2,30.26,NW,315,0.0,0.0,95,0.00,,,0.00,meteohub,2013-05-08 13:07:00,
2013-05-08 09:12:00,61.0,59.2,30.26,NNE,22,2.0,0.0,94,0.00,,,0.00,meteohub,2013-05-08 13:12:00,
2013-05-08 09:17:00,61.3,59.4,30.26,North,0,0.0,2.0,93,0.00,,,0.00,meteohub,2013-05-08 13:17:00,
2013-05-08 09:22:00,62.1,60.1,30.26,WNW,292,0.0,2.0,93,0.00,,,0.00,meteohub,2013-05-08 13:22:00,
2013-05-08 09:27:00,62.8,60.1,30.26,NNE,22,0.0,2.0,91,0.00,,,0.00,meteohub,2013-05-08 13:27:00,
2013-05-08 09:32:00,63.5,60.3,30.26,WNW,292,0.0,0.0,89,0.00,,,0.00,meteohub,2013-05-08 13:32:00,
2013-05-08 09:37:00,64.4,60.1,30.26,WNW,292,0.0,0.0,86,0.00,,,0.00,meteohub,2013-05-08 13:37:00,
2013-05-08 09:47:00,66.4,61.0,30.26,South,180,0.0,2.0,83,0.00,,,0.00,meteohub,2013-05-08 13:47:00,
2013-05-08 09:52:00,66.9,60.3,30.26,South,180,3.0,3.0,79,0.00,,,0.00,meteohub,2013-05-08 13:52:00,
2013-05-08 09:57:00,66.7,59.7,30.26,ENE,68,3.0,5.0,78,0.00,,,0.00,meteohub,2013-05-08 13:57:00,
2013-05-08 10:02:00,67.3,60.6,30.26,SSE,158,5.0,5.0,79,0.00,,,0.00,meteohub,2013-05-08 14:02:00,
2013-05-08 10:07:00,69.3,59.9,30.26,West,270,0.0,5.0,72,0.00,,,0.00,meteohub,2013-05-08 14:07:00,
2013-05-08 10:12:00,70.7,60.8,30.26,SSW,202,2.0,6.0,71,0.00,,,0.00,meteohub,2013-05-08 14:12:00,
2013-05-08 10:17:00,70.2,58.6,30.26,WSW,248,2.0,7.0,67,0.00,,,0.00,meteohub,2013-05-08 14:17:00,
2013-05-08 10:22:00,69.4,58.8,30.26,South,180,1.0,7.0,69,0.00,,,0.00,meteohub,2013-05-08 14:22:00,
2013-05-08 10:27:00,70.0,59.4,30.26,NW,315,3.0,7.0,69,0.00,,,0.00,meteohub,2013-05-08 14:27:00,
2013-05-08 10:32:00,71.4,59.0,30.23,West,270,2.0,4.0,65,0.00,,,0.00,meteohub,2013-05-08 14:32:00,
2013-05-08 10:37:00,70.5,58.6,30.23,South,180,3.0,6.0,66,0.00,,,0.00,meteohub,2013-05-08 14:37:00,
2013-05-08 10:42:00,71.8,59.4,30.23,SSW,202,1.0,6.0,65,0.00,,,0.00,meteohub,2013-05-08 14:42:00,
2013-05-08 10:47:00,71.8,58.5,30.26,North,0,2.0,6.0,63,0.00,,,0.00,meteohub,2013-05-08 14:47:00,
2013-05-08 10:52:00,72.0,59.2,30.26,WNW,292,2.0,6.0,64,0.00,,,0.00,meteohub,2013-05-08 14:52:00,
2013-05-08 10:57:00,71.6,57.9,30.26,SSE,158,2.0,6.0,62,0.00,,,0.00,meteohub,2013-05-08 14:57:00,
2013-05-08 11:02:00,71.8,58.5,30.23,SE,135,3.0,6.0,63,0.00,,,0.00,meteohub,2013-05-08 15:02:00,
2013-05-08 11:07:00,71.8,56.7,30.23,South,180,6.0,6.0,59,0.00,,,0.00,meteohub,2013-05-08 15:07:00,
2013-05-08 11:12:00,71.4,57.2,30.23,NNW,338,2.0,7.0,61,0.00,,,0.00,meteohub,2013-05-08 15:12:00,
2013-05-08 11:17:00,71.2,57.6,30.23,SSW,202,0.0,7.0,62,0.00,,,0.00,meteohub,2013-05-08 15:17:00,
2013-05-08 11:22:00,72.0,57.7,30.23,West,270,4.0,7.0,61,0.00,,,0.00,meteohub,2013-05-08 15:22:00,
2013-05-08 11:27:00,72.3,57.2,30.23,East,90,2.0,9.0,59,0.00,,,0.00,meteohub,2013-05-08 15:27:00,
2013-05-08 11:32:00,73.6,56.8,30.20,SSW,202,3.0,9.0,56,0.00,,,0.00,meteohub,2013-05-08 15:32:00,
2013-05-08 11:37:00,73.0,56.8,30.20,SSW,202,1.0,9.0,57,0.00,,,0.00,meteohub,2013-05-08 15:37:00,
2013-05-08 11:42:00,72.0,54.9,30.20,SSW,202,7.0,7.0,55,0.00,,,0.00,meteohub,2013-05-08 15:42:00,
2013-05-08 11:47:00,71.4,57.2,30.23,South,180,3.0,7.0,61,0.00,,,0.00,meteohub,2013-05-08 15:47:00,
2013-05-08 11:52:00,68.4,57.0,30.23,SSE,158,1.0,7.0,67,0.00,,,0.00,meteohub,2013-05-08 15:52:00,
2013-05-08 11:57:00,66.6,56.8,30.23,South,180,2.0,10.0,71,0.05,,,0.05,meteohub,2013-05-08 15:57:00,
2013-05-08 12:02:00,66.0,57.9,30.23,ENE,68,0.0,10.0,75,0.13,,,0.13,meteohub,2013-05-08 16:02:00,
2013-05-08 12:07:00,66.2,58.1,30.23,North,0,0.0,8.0,75,0.13,,,0.13,meteohub,2013-05-08 16:07:00,
2013-05-08 12:12:00,66.7,59.7,30.23,North,0,0.0,8.0,78,0.13,,,0.13,meteohub,2013-05-08 16:12:00,
2013-05-08 12:17:00,67.5,60.8,30.23,North,0,0.0,2.0,79,0.13,,,0.13,meteohub,2013-05-08 16:17:00,
2013-05-08 12:22:00,68.2,62.1,30.23,NNE,22,0.0,1.0,81,0.13,,,0.13,meteohub,2013-05-08 16:22:00,
2013-05-08 12:27:00,68.9,63.5,30.23,South,180,0.0,2.0,83,0.13,,,0.13,meteohub,2013-05-08 16:27:00,
2013-05-08 12:32:00,69.3,63.5,30.23,NNW,338,0.0,4.0,82,0.13,,,0.13,meteohub,2013-05-08 16:32:00,
2013-05-08 12:37:00,68.7,62.2,30.23,SSW,202,0.0,4.0,80,0.13,,,0.13,meteohub,2013-05-08 16:37:00,
2013-05-08 12:42:00,68.2,61.7,30.23,NNE,22,3.0,4.0,80,0.13,,,0.13,meteohub,2013-05-08 16:42:00,
2013-05-08 12:47:00,67.8,59.5,30.23,WSW,248,1.0,6.0,75,0.13,,,0.13,meteohub,2013-05-08 16:47:00,
2013-05-08 12:52:00,67.1,60.4,30.23,SSW,202,0.0,10.0,79,0.08,,,0.13,meteohub,2013-05-08 16:52:00,
2013-05-08 12:57:00,67.1,60.8,30.23,WSW,248,2.0,10.0,80,0.04,,,0.13,meteohub,2013-05-08 16:57:00,
2013-05-08 13:02:00,67.3,61.0,30.20,WNW,292,0.0,7.0,80,0.00,,,0.13,meteohub,2013-05-08 17:02:00,
2013-05-08 13:07:00,67.6,61.0,30.20,WNW,292,0.0,7.0,79,0.00,,,0.13,meteohub,2013-05-08 17:07:00,
2013-05-08 13:12:00,68.4,61.2,30.20,South,180,0.0,5.0,78,0.00,,,0.13,meteohub,2013-05-08 17:12:00,
2013-05-08 13:17:00,69.1,62.2,30.20,West,270,0.0,4.0,79,0.00,,,0.13,meteohub,2013-05-08 17:17:00,
2013-05-08 13:22:00,69.6,62.1,30.20,South,180,2.0,4.0,77,0.00,,,0.13,meteohub,2013-05-08 17:22:00,
2013-05-08 13:27:00,69.8,59.9,30.20,SE,135,2.0,4.0,71,0.00,,,0.13,meteohub,2013-05-08 17:27:00,
2013-05-08 13:32:00,70.2,60.3,30.20,WSW,248,1.0,6.0,71,0.00,,,0.13,meteohub,2013-05-08 17:32:00,
2013-05-08 13:37:00,70.3,59.4,30.20,SE,135,3.0,9.0,68,0.00,,,0.13,meteohub,2013-05-08 17:37:00,
2013-05-08 13:42:00,70.3,57.2,30.20,ENE,68,4.0,9.0,63,0.00,,,0.13,meteohub,2013-05-08 17:42:00,
2013-05-08 13:47:00,70.5,57.4,30.20,SSE,158,1.0,12.0,63,0.00,,,0.13,meteohub,2013-05-08 17:47:00,
2013-05-08 13:52:00,70.9,57.2,30.20,SSE,158,4.0,12.0,62,0.00,,,0.13,meteohub,2013-05-08 17:52:00,
2013-05-08 13:57:00,71.2,57.0,30.20,SSW,202,1.0,12.0,61,0.00,,,0.13,meteohub,2013-05-08 17:57:00,
2013-05-08 14:02:00,71.8,55.8,30.20,NNE,22,3.0,7.0,57,0.00,,,0.13,meteohub,2013-05-08 18:02:00,
2013-05-08 14:07:00,72.1,55.0,30.20,SW,225,0.0,6.0,55,0.00,,,0.13,meteohub,2013-05-08 18:07:00,
2013-05-08 14:12:00,72.0,54.9,30.20,South,180,3.0,9.0,55,0.00,,,0.13,meteohub,2013-05-08 18:12:00,
2013-05-08 14:17:00,71.4,55.9,30.17,SSW,202,2.0,9.0,58,0.00,,,0.13,meteohub,2013-05-08 18:17:00,
2013-05-08 14:22:00,71.1,54.5,30.17,South,180,3.0,9.0,56,0.00,,,0.13,meteohub,2013-05-08 18:22:00,
2013-05-08 14:27:00,70.7,54.3,30.17,SE,135,3.0,10.0,56,0.00,,,0.13,meteohub,2013-05-08 18:27:00,
2013-05-08 14:32:00,70.2,55.6,30.17,NNW,338,3.0,10.0,60,0.00,,,0.13,meteohub,2013-05-08 18:32:00,
2013-05-08 14:37:00,70.0,55.9,30.17,NW,315,0.0,10.0,61,0.00,,,0.13,meteohub,2013-05-08 18:37:00,
2013-05-08 14:42:00,69.8,54.0,30.17,WNW,292,8.0,8.0,57,0.00,,,0.13,meteohub,2013-05-08 18:42:00,
2013-05-08 14:47:00,69.8,54.3,30.17,SSE,158,6.0,10.0,58,0.00,,,0.13,meteohub,2013-05-08 18:47:00,
2013-05-08 14:52:00,70.0,54.5,30.17,East,90,2.0,10.0,58,0.00,,,0.13,meteohub,2013-05-08 18:52:00,
2013-05-08 14:57:00,70.0,53.6,30.17,East,90,3.0,10.0,56,0.00,,,0.13,meteohub,2013-05-08 18:57:00,
2013-05-08 15:02:00,70.0,53.6,30.17,South,180,2.0,11.0,56,0.00,,,0.13,meteohub,2013-05-08 19:02:00,
2013-05-08 15:07:00,69.8,53.4,30.17,West,270,1.0,11.0,56,0.00,,,0.13,meteohub,2013-05-08 19:07:00,
2013-05-08 15:12:00,70.0,53.1,30.17,South,180,11.0,11.0,55,0.00,,,0.13,meteohub,2013-05-08 19:12:00,
2013-05-08 15:17:00,70.2,53.8,30.17,SSE,158,2.0,12.0,56,0.00,,,0.13,meteohub,2013-05-08 19:17:00,
2013-05-08 15:22:00,70.3,52.9,30.17,SSE,158,3.0,12.0,54,0.00,,,0.13,meteohub,2013-05-08 19:22:00,
2013-05-08 15:27:00,70.3,54.0,30.17,North,0,10.0,12.0,56,0.00,,,0.13,meteohub,2013-05-08 19:27:00,
2013-05-08 15:32:00,70.2,53.8,30.17,NNW,338,9.0,10.0,56,0.00,,,0.13,meteohub,2013-05-08 19:32:00,
2013-05-08 15:37:00,70.2,54.1,30.17,SSE,158,3.0,10.0,57,0.00,,,0.13,meteohub,2013-05-08 19:37:00,
2013-05-08 15:42:00,70.3,54.9,30.17,South,180,0.0,10.0,58,0.00,,,0.13,meteohub,2013-05-08 19:42:00,
2013-05-08 15:47:00,70.7,55.8,30.17,ENE,68,3.0,9.0,59,0.00,,,0.13,meteohub,2013-05-08 19:47:00,
2013-05-08 15:52:00,70.5,55.0,30.17,NW,315,3.0,9.0,58,0.00,,,0.13,meteohub,2013-05-08 19:52:00,
2013-05-08 15:57:00,70.2,55.2,30.17,WSW,248,3.0,9.0,59,0.00,,,0.13,meteohub,2013-05-08 19:57:00,
2013-05-08 16:02:00,69.8,54.9,30.17,South,180,3.0,10.0,59,0.00,,,0.13,meteohub,2013-05-08 20:02:00,
2013-05-08 16:07:00,69.6,55.6,30.17,WSW,248,4.0,10.0,61,0.00,,,0.13,meteohub,2013-05-08 20:07:00,
2013-05-08 16:12:00,69.6,56.1,30.17,ENE,68,1.0,10.0,62,0.00,,,0.13,meteohub,2013-05-08 20:12:00,
2013-05-08 16:17:00,69.4,56.3,30.17,NW,315,0.0,9.0,63,0.00,,,0.13,meteohub,2013-05-08 20:17:00,
2013-05-08 16:22:00,69.4,55.9,30.17,North,0,3.0,7.0,62,0.00,,,0.13,meteohub,2013-05-08 20:22:00,
2013-05-08 16:27:00,69.4,55.9,30.17,NW,315,2.0,8.0,62,0.00,,,0.13,meteohub,2013-05-08 20:27:00,
2013-05-08 16:32:00,69.4,56.3,30.17,North,0,0.0,10.0,63,0.00,,,0.13,meteohub,2013-05-08 20:32:00,
2013-05-08 16:37:00,69.4,56.7,30.17,ESE,112,0.0,10.0,64,0.00,,,0.13,meteohub,2013-05-08 20:37:00,
2013-05-08 16:42:00,68.9,57.0,30.17,East,90,2.0,8.0,66,0.00,,,0.13,meteohub,2013-05-08 20:42:00,
2013-05-08 16:47:00,68.9,57.6,30.17,NNE,22,3.0,8.0,67,0.00,,,0.13,meteohub,2013-05-08 20:47:00,
2013-05-08 16:52:00,68.5,57.2,30.17,SSW,202,0.0,6.0,67,0.00,,,0.13,meteohub,2013-05-08 20:52:00,
2013-05-08 16:57:00,68.5,57.6,30.17,SE,135,3.0,6.0,68,0.00,,,0.13,meteohub,2013-05-08 20:57:00,
2013-05-08 17:02:00,68.5,57.6,30.17,South,180,8.0,8.0,68,0.00,,,0.13,meteohub,2013-05-08 21:02:00,
2013-05-08 17:07:00,68.5,57.6,30.17,SSW,202,5.0,8.0,68,0.00,,,0.13,meteohub,2013-05-08 21:07:00,
2013-05-08 17:12:00,68.7,58.1,30.17,ESE,112,6.0,8.0,69,0.00,,,0.13,meteohub,2013-05-08 21:12:00,
2013-05-08 17:17:00,68.9,57.9,30.14,SSW,202,4.0,8.0,68,0.00,,,0.13,meteohub,2013-05-08 21:17:00,
2013-05-08 17:22:00,68.9,57.9,30.14,West,270,2.0,7.0,68,0.00,,,0.13,meteohub,2013-05-08 21:22:00,
2013-05-08 17:27:00,68.7,57.7,30.14,WNW,292,0.0,7.0,68,0.00,,,0.13,meteohub,2013-05-08 21:27:00,
2013-05-08 17:32:00,68.2,58.8,30.17,NW,315,0.0,7.0,72,0.00,,,0.13,meteohub,2013-05-08 21:32:00,
2013-05-08 17:37:00,66.9,58.8,30.17,SSE,158,3.0,7.0,75,0.00,,,0.13,meteohub,2013-05-08 21:37:00,
2013-05-08 17:42:00,66.0,60.1,30.17,SSW,202,4.0,7.0,81,0.04,,,0.17,meteohub,2013-05-08 21:42:00,
2013-05-08 17:47:00,65.3,59.7,30.14,SW,225,0.0,6.0,82,0.04,,,0.17,meteohub,2013-05-08 21:47:00,
2013-05-08 17:52:00,65.1,60.1,30.14,ENE,68,2.0,6.0,84,0.04,,,0.17,meteohub,2013-05-08 21:52:00,
2013-05-08 17:57:00,65.1,60.8,30.14,NNW,338,1.0,6.0,86,0.04,,,0.17,meteohub,2013-05-08 21:57:00,
2013-05-08 18:02:00,64.8,61.7,30.14,South,180,0.0,5.0,90,0.04,,,0.17,meteohub,2013-05-08 22:02:00,
2013-05-08 18:07:00,64.8,61.7,30.14,West,270,2.0,5.0,90,0.04,,,0.17,meteohub,2013-05-08 22:07:00,
2013-05-08 18:12:00,64.6,61.3,30.14,NE,45,2.0,6.0,89,0.04,,,0.17,meteohub,2013-05-08 22:12:00,
2013-05-08 18:17:00,64.6,61.5,30.14,WNW,292,3.0,6.0,90,0.04,,,0.17,meteohub,2013-05-08 22:17:00,
2013-05-08 18:22:00,64.6,62.2,30.14,SSW,202,1.0,5.0,92,0.04,,,0.17,meteohub,2013-05-08 22:22:00,
2013-05-08 18:27:00,64.6,61.9,30.14,SSW,202,2.0,5.0,91,0.04,,,0.17,meteohub,2013-05-08 22:27:00,
2013-05-08 18:32:00,64.6,62.2,30.14,North,0,3.0,5.0,92,0.04,,,0.17,meteohub,2013-05-08 22:32:00,
2013-05-08 18:37:00,64.6,61.9,30.14,SE,135,0.0,5.0,91,0.00,,,0.17,meteohub,2013-05-08 22:37:00,
2013-05-08 18:42:00,64.6,61.9,30.14,NNE,22,1.0,5.0,91,0.00,,,0.17,meteohub,2013-05-08 22:42:00,
2013-05-08 18:47:00,64.6,61.9,30.12,NNW,338,0.0,5.0,91,0.00,,,0.17,meteohub,2013-05-08 22:47:00,
2013-05-08 18:52:00,64.6,61.9,30.12,ENE,68,3.0,4.0,91,0.00,,,0.17,meteohub,2013-05-08 22:52:00,
2013-05-08 18:57:00,64.4,61.7,30.12,SSW,202,5.0,5.0,91,0.00,,,0.17,meteohub,2013-05-08 22:57:00,
2013-05-08 19:02:00,64.4,61.7,30.14,SSW,202,0.0,6.0,91,0.00,,,0.17,meteohub,2013-05-08 23:02:00,
2013-05-08 19:07:00,64.2,61.5,30.14,South,180,0.0,6.0,91,0.00,,,0.17,meteohub,2013-05-08 23:07:00,
2013-05-08 19:12:00,64.2,61.5,30.14,NNE,22,2.0,5.0,91,0.00,,,0.17,meteohub,2013-05-08 23:12:00,
2013-05-08 19:17:00,64.2,61.5,30.14,ESE,112,0.0,3.0,91,0.00,,,0.17,meteohub,2013-05-08 23:17:00,
2013-05-08 19:22:00,64.0,61.7,30.14,NE,45,0.0,3.0,92,0.00,,,0.17,meteohub,2013-05-08 23:22:00,
2013-05-08 19:27:00,64.0,62.1,30.14,SE,135,4.0,4.0,93,0.00,,,0.17,meteohub,2013-05-08 23:27:00,
2013-05-08 19:32:00,63.9,61.5,30.12,NE,45,2.0,4.0,92,0.00,,,0.17,meteohub,2013-05-08 23:32:00,
2013-05-08 19:37:00,63.9,61.5,30.12,NNW,338,0.0,4.0,92,0.00,,,0.17,meteohub,2013-05-08 23:37:00,
2013-05-08 19:42:00,63.7,61.3,30.12,SSE,158,0.0,4.0,92,0.00,,,0.17,meteohub,2013-05-08 23:42:00,
2013-05-08 19:47:00,63.7,61.3,30.14,SSE,158,4.0,4.0,92,0.00,,,0.17,meteohub,2013-05-08 23:47:00,
2013-05-08 19:52:00,63.7,61.3,30.14,NNW,338,4.0,4.0,92,0.00,,,0.17,meteohub,2013-05-08 23:52:00,
2013-05-08 19:57:00,63.5,61.2,30.14,ESE,112,2.0,4.0,92,0.00,,,0.17,meteohub,2013-05-08 23:57:00,
2013-05-08 20:02:00,63.7,61.0,30.14,West,270,1.0,4.0,91,0.00,,,0.17,meteohub,2013-05-09 00:02:00,
2013-05-08 20:07:00,63.7,61.0,30.14,NNE,22,1.0,5.0,91,0.00,,,0.00,meteohub,2013-05-09 00:07:00,
2013-05-08 20:12:00,63.7,60.6,30.14,South,180,3.0,5.0,90,0.00,,,0.00,meteohub,2013-05-09 00:12:00,
2013-05-08 20:17:00,63.5,60.8,30.14,SW,225,0.0,5.0,91,0.00,,,0.00,meteohub,2013-05-09 00:17:00,
2013-05-08 20:22:00,63.3,60.6,30.14,NE,45,1.0,5.0,91,0.00,,,0.00,meteohub,2013-05-09 00:22:00,
2013-05-08 20:27:00,63.3,60.6,30.14,SSE,158,0.0,4.0,91,0.00,,,0.00,meteohub,2013-05-09 00:27:00,
2013-05-08 20:32:00,63.1,60.8,30.12,SSE,158,2.0,4.0,92,0.00,,,0.00,meteohub,2013-05-09 00:32:00,
2013-05-08 20:37:00,63.1,60.4,30.12,WSW,248,0.0,2.0,91,0.00,,,0.00,meteohub,2013-05-09 00:37:00,
2013-05-08 20:42:00,63.1,60.8,30.12,SSE,158,0.0,2.0,92,0.00,,,0.00,meteohub,2013-05-09 00:42:00,
2013-05-08 20:47:00,63.1,60.8,30.14,SE,135,0.0,6.0,92,0.00,,,0.00,meteohub,2013-05-09 00:47:00,
2013-05-08 20:52:00,63.1,60.8,30.14,SW,225,6.0,6.0,92,0.00,,,0.00,meteohub,2013-05-09 00:52:00,
2013-05-08 20:57:00,63.1,60.8,30.14,SSE,158,5.0,6.0,92,0.00,,,0.00,meteohub,2013-05-09 00:57:00,
2013-05-08 21:02:00,63.1,60.8,30.14,SSE,158,2.0,6.0,92,0.00,,,0.00,meteohub,2013-05-09 01:02:00,
2013-05-08 21:07:00,63.0,60.6,30.14,NNW,338,0.0,6.0,92,0.00,,,0.00,meteohub,2013-05-09 01:07:00,
2013-05-08 21:12:00,63.0,60.6,30.14,SW,225,0.0,6.0,92,0.00,,,0.00,meteohub,2013-05-09 01:12:00,
2013-05-08 21:17:00,63.0,60.6,30.14,South,180,0.0,3.0,92,0.00,,,0.00,meteohub,2013-05-09 01:17:00,
2013-05-08 21:22:00,63.0,60.6,30.14,SSE,158,0.0,2.0,92,0.00,,,0.00,meteohub,2013-05-09 01:22:00,
2013-05-08 21:27:00,63.0,60.6,30.14,SE,135,0.0,2.0,92,0.00,,,0.00,meteohub,2013-05-09 01:27:00,
2013-05-08 21:32:00,63.0,60.6,30.12,ENE,68,0.0,3.0,92,0.00,,,0.00,meteohub,2013-05-09 01:32:00,
2013-05-08 21:37:00,63.0,60.6,30.12,SSW,202,0.0,3.0,92,0.00,,,0.00,meteohub,2013-05-09 01:37:00,
2013-05-08 21:42:00,62.8,60.4,30.12,North,0,0.0,3.0,92,0.00,,,0.00,meteohub,2013-05-09 01:42:00,
2013-05-08 21:47:00,62.8,60.4,30.12,South,180,0.0,3.0,92,0.00,,,0.00,meteohub,2013-05-09 01:47:00,
2013-05-08 21:52:00,63.0,60.6,30.12,East,90,0.0,3.0,92,0.00,,,0.00,meteohub,2013-05-09 01:52:00,
2013-05-08 21:57:00,63.0,60.6,30.12,SE,135,3.0,3.0,92,0.00,,,0.00,meteohub,2013-05-09 01:57:00,
2013-05-08 22:02:00,63.0,60.6,30.12,West,270,1.0,3.0,92,0.00,,,0.00,meteohub,2013-05-09 02:02:00,
2013-05-08 22:07:00,63.0,61.0,30.12,South,180,3.0,3.0,93,0.00,,,0.00,meteohub,2013-05-09 02:07:00,
2013-05-08 22:12:00,63.0,60.6,30.12,South,180,3.0,5.0,92,0.00,,,0.00,meteohub,2013-05-09 02:12:00,
2013-05-08 22:17:00,63.0,61.0,30.12,SE,135,4.0,5.0,93,0.00,,,0.00,meteohub,2013-05-09 02:17:00,
2013-05-08 22:22:00,63.0,61.0,30.12,North,0,1.0,4.0,93,0.00,,,0.00,meteohub,2013-05-09 02:22:00,
2013-05-08 22:27:00,62.8,60.8,30.12,West,270,0.0,4.0,93,0.00,,,0.00,meteohub,2013-05-09 02:27:00,
2013-05-08 22:32:00,62.6,60.6,30.12,ESE,112,0.0,4.0,93,0.00,,,0.00,meteohub,2013-05-09 02:32:00,
2013-05-08 22:37:00,62.6,60.6,30.12,WSW,248,0.0,4.0,93,0.00,,,0.00,meteohub,2013-05-09 02:37:00,
2013-05-08 22:42:00,62.6,60.8,30.12,SW,225,0.0,4.0,94,0.00,,,0.00,meteohub,2013-05-09 02:42:00,
2013-05-08 22:47:00,62.4,61.0,30.12,SE,135,0.0,4.0,95,0.00,,,0.00,meteohub,2013-05-09 02:47:00,
2013-05-08 22:52:00,62.4,61.0,30.12,East,90,0.0,3.0,95,0.00,,,0.00,meteohub,2013-05-09 02:52:00,
2013-05-08 22:57:00,62.2,60.8,30.12,South,180,1.0,3.0,95,0.00,,,0.00,meteohub,2013-05-09 02:57:00,
2013-05-08 23:02:00,62.2,61.2,30.12,SSW,202,0.0,3.0,96,0.00,,,0.00,meteohub,2013-05-09 03:02:00,
2013-05-08 23:07:00,62.2,60.8,30.12,South,180,0.0,3.0,95,0.00,,,0.00,meteohub,2013-05-09 03:07:00,
2013-05-08 23:12:00,62.2,60.8,30.12,SSW,202,0.0,4.0,95,0.00,,,0.00,meteohub,2013-05-09 03:12:00,
2013-05-08 23:17:00,62.1,60.6,30.09,SW,225,0.0,4.0,95,0.00,,,0.00,meteohub,2013-05-09 03:17:00,
2013-05-08 23:22:00,62.1,60.6,30.09,SSE,158,0.0,4.0,95,0.00,,,0.00,meteohub,2013-05-09 03:22:00,
2013-05-08 23:27:00,62.1,61.0,30.09,SE,135,2.0,3.0,96,0.00,,,0.00,meteohub,2013-05-09 03:27:00,
2013-05-08 23:32:00,62.1,61.0,30.12,ESE,112,0.0,3.0,96,0.00,,,0.00,meteohub,2013-05-09 03:32:00,
2013-05-08 23:37:00,61.9,60.4,30.12,SSW,202,0.0,4.0,95,0.00,,,0.00,meteohub,2013-05-09 03:37:00,
2013-05-08 23:42:00,61.9,60.8,30.12,West,270,0.0,4.0,96,0.00,,,0.00,meteohub,2013-05-09 03:42:00,
2013-05-08 23:47:00,61.9,60.8,30.09,WSW,248,0.0,2.0,96,0.00,,,0.00,meteohub,2013-05-09 03:47:00,
2013-05-08 23:52:00,61.9,60.8,30.09,WSW,248,0.0,1.0,96,0.00,,,0.00,meteohub,2013-05-09 03:52:00,
2013-05-08 23:57:00,61.9,60.8,30.09,South,180,1.0,0.0,96,0.00,,,0.00,meteohub,2013-05-09 03:57:00,